{"data":{"norad_id":66607,"intl_designator":"2025-270V","name":"STARLINK-35993","alt_names":[],"object_type":"PAYLOAD","status":"ACTIVE","operator":null,"country":"US","launch_date":"2025-11-22","launch_site_code":"AFETR","launch_vehicle":null,"mission":null,"orbit_class":"UNKNOWN","rcs_meters":null,"size_class":null,"mass_kg":null,"dimensions":null,"purposes":["comms"],"wikipedia_slug":null,"has_3d_model":false,"image_url":null,"decayed_at":null,"tle_current":{"epoch":"2026-09-20T20:41:08.726784Z","epoch_age_seconds":55430,"freshness":"FRESH","line1":"1 66607U 25270V   26263.86190656  .00011243  00000+0  41735-3 0  9994","line2":"2 66607  43.0006  34.0592 0001167 271.2208  88.8509 15.27588349 47450","mean_motion":15.27588349,"eccentricity":0.0001167,"inclination_deg":43.0006,"raan_deg":34.0592,"arg_perigee_deg":271.2208,"mean_anomaly_deg":88.8509,"bstar":0.00041735,"rev_number":4745,"period_min":94.266233500842,"perigee_km":482.22339874405,"apogee_km":483.82479374391,"semimajor_km":6861.161096244,"source":"CELESTRAK","updated_at":"2026-09-21T09:00:35.979707Z"}}}